Location: Heppenheim
(49.6410°N, 8.6370°E)
Time: 23:07:13
(UTC+01:00)

ISS - Pass Details

Date: 27 February 2019
Orbit: 406 x 411 km, 51.6° (Epoch: 19 March)

Event Time Altitude Azimuth Distance (km) Brightness Sun altitude
Exits shadow 04:45:47 12° 140° (SE) 1,327 -1.0 -24.5°
Maximum altitude 04:45:59 12° 136° (SE) 1,324 -0.9 -24.4°
Drops below altitude 10° 04:47:26 10° 110° (ESE) 1,464 -0.3 -24.2°
Sets 04:50:28 0° 79° (E) 2,330 1.5 -23.7°
